TimeCST,TemperatureF,Dew PointF,Humidity,Sea Level PressureIn,VisibilityMPH,Wind Direction,Wind SpeedMPH,Gust SpeedMPH,PrecipitationIn,Events,Conditions,WindDirDegrees,DateUTC
12:53 AM,48.0,34.0,58,29.91,10.0,SSE,8.1,-,N/A,,Clear,160,2012-12-23 06:53:00
1:53 AM,46.9,36.0,66,29.90,10.0,SSE,8.1,-,N/A,,Clear,160,2012-12-23 07:53:00
2:53 AM,46.0,37.0,71,29.89,10.0,SSE,5.8,-,N/A,,Clear,160,2012-12-23 08:53:00
3:53 AM,46.0,39.0,76,29.88,10.0,SSE,4.6,-,N/A,,Clear,160,2012-12-23 09:53:00
4:53 AM,42.1,37.9,85,29.88,10.0,ESE,3.5,-,N/A,,Clear,120,2012-12-23 10:53:00
5:53 AM,39.0,35.1,86,29.89,10.0,Calm,Calm,-,N/A,,Clear,0,2012-12-23 11:53:00
6:53 AM,37.9,35.1,89,29.90,10.0,Calm,Calm,-,N/A,,Clear,0,2012-12-23 12:53:00
7:53 AM,37.9,35.1,89,29.90,10.0,Calm,Calm,-,N/A,,Clear,0,2012-12-23 13:53:00
8:53 AM,43.0,39.0,86,29.91,10.0,Calm,Calm,-,N/A,,Clear,0,2012-12-23 14:53:00
9:53 AM,48.0,39.0,71,29.91,10.0,Calm,Calm,-,N/A,,Clear,0,2012-12-23 15:53:00
10:53 AM,51.8,41.0,67,29.91,10.0,NNW,5.8,-,N/A,,Clear,330,2012-12-23 16:53:00
11:53 AM,54.0,39.9,59,29.88,10.0,Variable,3.5,-,N/A,,Clear,0,2012-12-23 17:53:00
12:53 PM,55.0,41.0,59,29.83,10.0,Calm,Calm,-,N/A,,Clear,0,2012-12-23 18:53:00
1:53 PM,57.0,39.9,53,29.83,10.0,Calm,Calm,-,N/A,,Clear,0,2012-12-23 19:53:00
2:53 PM,57.0,37.0,47,29.81,10.0,North,8.1,-,N/A,,Clear,350,2012-12-23 20:53:00
3:53 PM,55.0,35.1,47,29.81,10.0,North,8.1,-,N/A,,Clear,350,2012-12-23 21:53:00
4:53 PM,50.0,34.0,54,29.85,10.0,NW,8.1,-,N/A,,Clear,320,2012-12-23 22:53:00
5:53 PM,45.0,33.1,63,29.86,10.0,North,9.2,-,N/A,,Clear,360,2012-12-23 23:53:00
6:53 PM,44.1,30.9,60,29.87,10.0,North,12.7,-,N/A,,Clear,350,2012-12-24 00:53:00
7:53 PM,37.9,28.0,68,29.91,7.0,North,11.5,-,N/A,,Clear,350,2012-12-24 01:53:00
8:53 PM,34.0,26.1,73,29.96,7.0,NNW,16.1,-,N/A,,Clear,340,2012-12-24 02:53:00
9:53 PM,32.0,25.0,75,29.94,7.0,NNW,9.2,-,N/A,,Clear,340,2012-12-24 03:53:00
10:53 PM,30.0,24.1,79,29.95,6.0,North,8.1,-,N/A,,Haze,350,2012-12-24 04:53:00
11:53 PM,28.9,24.1,82,29.97,5.0,NW,9.2,-,N/A,,Haze,320,2012-12-24 05:53:00